Muskogee, OK

11:41 AM CST on February 21, 2017 (GMT -0600)
Davis

Weather History for KMKO - December, 2012

Change the Weather History Date:

Saturday, December 29, 2012

  Actual Average Record
Temperature  
Mean Temperature 28 °F -  
Max Temperature 39 °F 47 °F 69 °F (1999)
Min Temperature 17 °F 27 °F 17 °F (2012)
Degree Days  
Heating Degree Days 37    
Moisture  
Dew Point 15 °F    
Average Humidity 66    
Maximum Humidity 81    
Minimum Humidity 39    
Precipitation  
Precipitation 0.00 in - - ()
Sea Level Pressure  
Sea Level Pressure 30.38 in    
Wind  
Wind Speed 8 mph (WNW)    
Max Wind Speed 10 mph    
Max Gust Speed -    
Visibility 10 miles    
Events      
Averages and records for this station are not official NWS values.
T = Trace of Precipitation, MM = Missing Value Source: NWS Daily Summary

Daily Weather History Graph

Daily Weather History Graph

Search for Another Location

Airport or City:

Trip Planner

Search our weather history database for the weather conditions in past years. The results will help you decide how hot, cold, wet, or windy it might be!

Date:

Astronomy

Dec. 29, 2012 Rise Set
Actual Time 7:30 AM CST 5:17 PM CST
Civil Twilight 7:02 AM CST 5:45 PM CST
Nautical Twilight 6:30 AM CST 6:17 PM CST
Astronomical Twilight 5:59 AM CST 6:48 PM CST
Moon 6:47 PM CST (12/29) 8:07 AM CST (12/29)
Length of Visible Light 10h 43m
Length of Day
9h 46m
Full, 98% of the Moon is Illuminated
Dec 29
Full
Jan 4
Last Quarter
Jan 11
New
Jan 18
First Quarter
Jan 26
Full

Hourly Weather History & Observations

Time (CST) Temp. Windchill Dew Point Humidity Pressure Visibility Wind Dir Wind Speed Gust Speed Precip Events Conditions
12:53 AM 23.0 °F 13.1 °F 14.0 °F 68% 30.21 in 10.0 mi NW 9.2 mph - N/A   Clear
1:53 AM 21.9 °F 11.7 °F 14.0 °F 72% 30.21 in 10.0 mi NW 9.2 mph - N/A   Clear
2:53 AM 21.0 °F 10.6 °F 12.9 °F 71% 30.25 in 10.0 mi NW 9.2 mph - N/A   Clear
3:53 AM 19.9 °F 10.1 °F 12.9 °F 74% 30.27 in 10.0 mi NW 8.1 mph - N/A   Clear
4:53 AM 19.9 °F 8.6 °F 12.9 °F 74% 30.28 in 10.0 mi NW 10.4 mph - N/A   Clear
6:53 AM 17.1 °F 8.7 °F 12.0 °F 81% 30.36 in 10.0 mi WNW 5.8 mph - N/A   Clear
7:53 AM 17.1 °F 7.6 °F 12.0 °F 81% 30.38 in 8.0 mi NW 6.9 mph - N/A   Clear
8:53 AM 21.0 °F 10.6 °F 14.0 °F 74% 30.40 in 9.0 mi NW 9.2 mph - N/A   Clear
9:53 AM 24.1 °F 17.0 °F 15.1 °F 69% 30.43 in 10.0 mi NW 5.8 mph - N/A   Clear
10:53 AM 26.1 °F 16.8 °F 16.0 °F 66% 30.45 in 10.0 mi WNW 9.2 mph - N/A   Clear
11:53 AM 28.0 °F 21.7 °F 17.1 °F 63% 30.43 in 10.0 mi West 5.8 mph - N/A   Clear
12:53 PM 32.0 °F 24.8 °F 17.1 °F 54% 30.41 in 10.0 mi NW 8.1 mph - N/A   Clear
1:53 PM 35.1 °F 30.1 °F 17.1 °F 48% 30.39 in 10.0 mi Variable 5.8 mph - N/A   Clear
2:53 PM 37.9 °F 31.5 °F 16.0 °F 41% 30.40 in 10.0 mi NW 9.2 mph - N/A   Clear
3:53 PM 39.0 °F 34.8 °F 16.0 °F 39% 30.40 in 10.0 mi West 5.8 mph - N/A   Clear
5:53 PM 33.1 °F - 16.0 °F 50% 30.41 in 10.0 mi Calm Calm - N/A   Clear
6:53 PM 28.9 °F 22.8 °F 17.1 °F 61% 30.43 in 10.0 mi SSE 5.8 mph - N/A   Clear
7:53 PM 27.0 °F 21.6 °F 16.0 °F 63% 30.44 in 10.0 mi SSE 4.6 mph - N/A   Clear
8:53 PM 25.0 °F 18.1 °F 16.0 °F 69% 30.43 in 10.0 mi SE 5.8 mph - N/A   Clear
9:53 PM 23.0 °F 15.8 °F 16.0 °F 74% 30.44 in 10.0 mi SSE 5.8 mph - N/A   Clear
10:53 PM 21.9 °F 14.5 °F 16.0 °F 78% 30.45 in 10.0 mi SSE 5.8 mph - N/A   Clear
11:53 PM 21.9 °F 14.5 °F 16.0 °F 78% 30.46 in 10.0 mi SSE 5.8 mph - N/A   Clear